Hourly Weather Chagino

Today, 14 June, Monday

Time Temperature Precipitation Wind Pressure Humidity
00:00 +18°C° 0 mm 1 mps 744 mmHg 85%
01:00 +18°C° 0 mm 1 mps 744 mmHg 86%
02:00 +16°C° 0 mm 1 mps 745 mmHg 88%
03:00 +16°C° 0 mm 1 mps 745 mmHg 89%
04:00 +18°C° 0 mm 1 mps 745 mmHg 89%
05:00 +18°C° 0 mm 1 mps 745 mmHg 89%
06:00 +19°C° 0 mm 1 mps 746 mmHg 88%
07:00 +20°C° 0 mm 1 mps 746 mmHg 83%
08:00 +22°C° 0 mm 1 mps 746 mmHg 79%
09:00 +23°C° 0 mm 2 mps 747 mmHg 74%
10:00 +24°C° 0.6 mm 1 mps 747 mmHg 71%
11:00 +25°C° 0.6 mm 1 mps 747 mmHg 68%
12:00 +24°C° 0.6 mm 0 mps 747 mmHg 65%
13:00 +24°C° 0.2 mm 0 mps 747 mmHg 62%
14:00 +25°C° 0.2 mm 0 mps 747 mmHg 60%
15:00 +27°C° 0 mm 1 mps 747 mmHg 59%
16:00 +27°C° 0.1 mm 1 mps 747 mmHg 64%
17:00 +26°C° 0.1 mm 1 mps 747 mmHg 68%
18:00 +26°C° 0.1 mm 1 mps 747 mmHg 73%
19:00 +24°C° 0.8 mm 2 mps 747 mmHg 77%
20:00 +23°C° 0.8 mm 2 mps 747 mmHg 81%
21:00 +20°C° 0.8 mm 2 mps 747 mmHg 85%
22:00 +20°C° 0.6 mm 1 mps 747 mmHg 86%
23:00 +20°C° 0.6 mm 1 mps 747 mmHg 87%

Tomorrow, 15 June, Tuesday

Time Temperature Precipitation Wind Pressure Humidity
00:00 +19°C° 0.6 mm 1 mps 747 mmHg 88%
01:00 +19°C° 0 mm 1 mps 747 mmHg 89%
02:00 +19°C° 0 mm 1 mps 747 mmHg 89%
03:00 +18°C° 0 mm 1 mps 746 mmHg 90%
04:00 +19°C° 0 mm 1 mps 746 mmHg 90%
05:00 +19°C° 0 mm 1 mps 747 mmHg 90%
06:00 +20°C° 0 mm 1 mps 747 mmHg 90%
07:00 +21°C° 0.3 mm 1 mps 746 mmHg 86%
08:00 +23°C° 0.3 mm 1 mps 746 mmHg 81%
09:00 +24°C° 0.3 mm 1 mps 746 mmHg 77%
10:00 +25°C° 0.4 mm 1 mps 746 mmHg 72%
11:00 +26°C° 0.4 mm 2 mps 746 mmHg 67%
12:00 +27°C° 0.4 mm 2 mps 746 mmHg 61%
13:00 +27°C° 0 mm 2 mps 745 mmHg 61%
14:00 +27°C° 0 mm 2 mps 745 mmHg 60%
15:00 +27°C° 0 mm 2 mps 745 mmHg 59%
16:00 +27°C° 0.3 mm 2 mps 745 mmHg 64%
17:00 +26°C° 0.3 mm 2 mps 744 mmHg 69%
18:00 +26°C° 0.3 mm 1 mps 744 mmHg 73%
19:00 +24°C° 0.3 mm 1 mps 744 mmHg 77%
20:00 +23°C° 0.3 mm 1 mps 744 mmHg 81%
21:00 +21°C° 0.3 mm 1 mps 744 mmHg 84%
22:00 +21°C° 0 mm 1 mps 744 mmHg 85%
23:00 +20°C° 0 mm 1 mps 744 mmHg 87%

Day after tomorrow, 16 June, Wednesday

Time Temperature Precipitation Wind Pressure Humidity
00:00 +18°C° 0 mm 0 mps 743 mmHg 88%
01:00 +17°C° 0 mm 0 mps 743 mmHg 88%
02:00 +17°C° 0 mm 0 mps 743 mmHg 89%
03:00 +17°C° 0 mm 0 mps 743 mmHg 89%
04:00 +17°C° 0 mm 0 mps 743 mmHg 89%
05:00 +20°C° 0 mm 1 mps 743 mmHg 89%
06:00 +21°C° 0 mm 1 mps 744 mmHg 88%
07:00 +22°C° 0 mm 1 mps 744 mmHg 84%
08:00 +23°C° 0 mm 2 mps 744 mmHg 80%
09:00 +24°C° 0 mm 2 mps 744 mmHg 76%
10:00 +25°C° 0.5 mm 2 mps 744 mmHg 73%
11:00 +26°C° 0.5 mm 2 mps 744 mmHg 70%
12:00 +27°C° 0.5 mm 3 mps 744 mmHg 66%
13:00 +27°C° 0.3 mm 3 mps 745 mmHg 66%
14:00 +27°C° 0.3 mm 4 mps 745 mmHg 67%
15:00 +27°C° 0.3 mm 4 mps 745 mmHg 67%
16:00 +26°C° 0.4 mm 4 mps 745 mmHg 72%
17:00 +25°C° 0.4 mm 4 mps 746 mmHg 77%
18:00 +23°C° 0.4 mm 5 mps 746 mmHg 81%
19:00 +22°C° 0.1 mm 4 mps 746 mmHg 85%
20:00 +21°C° 0.1 mm 4 mps 747 mmHg 88%
21:00 +19°C° 0.1 mm 3 mps 747 mmHg 91%
22:00 +19°C° 0 mm 3 mps 748 mmHg 91%
23:00 +18°C° 0 mm 4 mps 748 mmHg 91%

17 June, Thursday

Time Temperature Precipitation Wind Pressure Humidity
00:00 +17°C° 0 mm 4 mps 748 mmHg 91%
01:00 +17°C° 0 mm 4 mps 749 mmHg 90%
02:00 +15°C° 0 mm 4 mps 749 mmHg 88%
03:00 +14°C° 0 mm 4 mps 750 mmHg 87%
04:00 +14°C° 0 mm 4 mps 750 mmHg 85%
05:00 +14°C° 0 mm 4 mps 750 mmHg 84%
06:00 +13°C° 0 mm 4 mps 751 mmHg 82%
07:00 +15°C° 0 mm 4 mps 751 mmHg 77%
08:00 +17°C° 0 mm 4 mps 752 mmHg 72%
09:00 +19°C° 0 mm 4 mps 752 mmHg 68%
10:00 +20°C° 0 mm 4 mps 752 mmHg 64%
11:00 +21°C° 0 mm 4 mps 752 mmHg 60%
12:00 +22°C° 0 mm 4 mps 753 mmHg 56%
13:00 +22°C° 0 mm 5 mps 753 mmHg 56%
14:00 +22°C° 0 mm 5 mps 753 mmHg 55%
15:00 +22°C° 0 mm 5 mps 753 mmHg 54%
16:00 +22°C° 0 mm 4 mps 753 mmHg 58%
17:00 +22°C° 0 mm 4 mps 753 mmHg 63%
18:00 +21°C° 0 mm 3 mps 753 mmHg 67%
19:00 +20°C° 0 mm 3 mps 754 mmHg 71%
20:00 +18°C° 0 mm 3 mps 754 mmHg 75%
21:00 +17°C° 0 mm 2 mps 754 mmHg 79%
22:00 +16°C° 0 mm 2 mps 754 mmHg 79%
23:00 +16°C° 0 mm 2 mps 755 mmHg 79%

18 June, Friday

Time Temperature Precipitation Wind Pressure Humidity
00:00 +15°C° 0 mm 2 mps 755 mmHg 79%
01:00 +15°C° 0 mm 2 mps 755 mmHg 80%
02:00 +14°C° 0 mm 2 mps 755 mmHg 81%
03:00 +14°C° 0 mm 2 mps 755 mmHg 81%
04:00 +14°C° 0 mm 2 mps 756 mmHg 82%
05:00 +15°C° 0 mm 2 mps 756 mmHg 82%
06:00 +16°C° 0 mm 2 mps 756 mmHg 83%
07:00 +17°C° 0 mm 2 mps 756 mmHg 77%
08:00 +19°C° 0 mm 2 mps 757 mmHg 72%
09:00 +20°C° 0 mm 2 mps 757 mmHg 67%
10:00 +21°C° 0 mm 2 mps 757 mmHg 62%
11:00 +23°C° 0 mm 2 mps 757 mmHg 57%
12:00 +24°C° 0 mm 2 mps 757 mmHg 53%
13:00 +24°C° 0 mm 2 mps 757 mmHg 52%
14:00 +25°C° 0 mm 2 mps 757 mmHg 52%
15:00 +25°C° 0 mm 2 mps 757 mmHg 52%
16:00 +25°C° 0 mm 2 mps 757 mmHg 56%
17:00 +25°C° 0 mm 1 mps 757 mmHg 60%
18:00 +25°C° 0 mm 1 mps 757 mmHg 65%
19:00 +23°C° 0 mm 1 mps 757 mmHg 68%
20:00 +21°C° 0 mm 1 mps 757 mmHg 71%
21:00 +18°C° 0 mm 0 mps 757 mmHg 74%
22:00 +17°C° 0 mm 0 mps 757 mmHg 75%
23:00 +18°C° 0 mm 1 mps 757 mmHg 77%

19 June, Saturday

Time Temperature Precipitation Wind Pressure Humidity
00:00 +18°C° 0 mm 1 mps 757 mmHg 79%
01:00 +16°C° 0 mm 1 mps 757 mmHg 81%
02:00 +16°C° 0 mm 1 mps 758 mmHg 82%
03:00 +15°C° 0 mm 1 mps 758 mmHg 84%
04:00 +16°C° 0 mm 1 mps 758 mmHg 83%
05:00 +18°C° 0 mm 1 mps 758 mmHg 82%
06:00 +19°C° 0 mm 1 mps 759 mmHg 81%
07:00 +20°C° 0 mm 1 mps 759 mmHg 77%
08:00 +21°C° 0 mm 1 mps 759 mmHg 73%
09:00 +23°C° 0 mm 1 mps 759 mmHg 69%
10:00 +24°C° 0 mm 1 mps 758 mmHg 66%
11:00 +25°C° 0 mm 1 mps 758 mmHg 62%
12:00 +26°C° 0 mm 1 mps 758 mmHg 59%
13:00 +26°C° 0 mm 1 mps 758 mmHg 58%
14:00 +26°C° 0 mm 1 mps 758 mmHg 56%
15:00 +27°C° 0 mm 1 mps 757 mmHg 55%
16:00 +27°C° 0 mm 1 mps 757 mmHg 58%
17:00 +26°C° 0 mm 1 mps 757 mmHg 60%
18:00 +26°C° 0 mm 1 mps 757 mmHg 62%
19:00 +25°C° 0 mm 1 mps 757 mmHg 67%
20:00 +23°C° 0 mm 1 mps 757 mmHg 72%
21:00 +19°C° 0 mm 0 mps 757 mmHg 77%
22:00 +20°C° 0 mm 1 mps 757 mmHg 79%
23:00 +20°C° 0 mm 1 mps 757 mmHg 81%
Show more

We Need Your Consent

Meteoprog and our Service Providers may store and access personal data such as cookies, device identifiers or other similar technologies on your device and process such data to personalise content and ads, as well as provide social media features and to analyse the traffic.

  • Store and/or access information on your device

    Cookies, device identifiers or other information can be stored or accessed on your device for the purposes indicated above.

  • Personalised ads and content, ad and content measurement, audience insights, and products development

    Ads and content can be personalised based on a profile. More data can be added to better personalise ads and content. Ad and content performance can be measured. Insights about the audience who saw the ads and content can be derived. Such data can be used to develop or improve user’s experience, systems and software.

By clicking ‘I Agree’ you will allow the use of indicated cookies, device identifiers, web beacons or other similar technologies. Your settings can be changed in the browser on your device.

For certain purposes, legitimate interests may be relied on, rather than consent. You can read more about this in our Privacy and Cookie Policy.